Change the Weather History Date:

Sunday, October 28, 2012

  Actual Average Record
Temperature  
Mean Temperature 30 °F -  
Max Temperature 39 °F 43 °F 57 °F (1998)
Min Temperature 21 °F 28 °F 17 °F (2007)
Degree Days  
Heating Degree Days 35    
Moisture  
Dew Point 21 °F    
Average Humidity 70    
Maximum Humidity 93    
Minimum Humidity 49    
Precipitation  
Precipitation 0.00 in - - ()
Sea Level Pressure  
Sea Level Pressure 30.30 in    
Wind  
Wind Speed 1 mph (SW)    
Max Wind Speed 10 mph    
Max Gust Speed 16 mph    
Visibility 10 miles    
Events      
Averages and records for this station are not official NWS values.
T = Trace of Precipitation, MM = Missing Value Source: NWS Daily Summary

Daily Weather History Graph

Daily Weather History Graph

Search for Another Location

Airport or City:

Trip Planner

Search our weather history database for the weather conditions in past years. The results will help you decide how hot, cold, wet, or windy it might be!

Date:

Astronomy

Oct. 28, 2012 Rise Set
Actual Time 7:43 AM CDT 5:54 PM CDT
Civil Twilight 7:11 AM CDT 6:26 PM CDT
Nautical Twilight 6:36 AM CDT 7:01 PM CDT
Astronomical Twilight 6:00 AM CDT 7:37 PM CDT
Moon 5:12 PM CDT (10/28) 6:35 AM CDT (10/28)
Length of Visible Light 11h 14m
Length of Day
10h 10m
Waxing Gibbous, 99% of the Moon is Illuminated
Oct 28
Waxing Gibbous
Oct 29
Full
Nov 6
Last Quarter
Nov 13
New
Nov 20
First Quarter

Hourly Weather History & Observations

Time (CDT) Temp. Windchill Dew Point Humidity Pressure Visibility Wind Dir Wind Speed Gust Speed Precip Events Conditions
12:13 AM 24.8 °F - 17.6 °F 74% 30.31 in 10.0 mi Calm Calm - N/A   Mostly Cloudy
12:33 AM 24.8 °F - 17.6 °F 74% 30.30 in 10.0 mi Calm Calm - N/A   Overcast
12:53 AM 24.8 °F - 15.8 °F 69% 30.31 in 10.0 mi Calm Calm - N/A   Overcast
1:13 AM 24.8 °F - 17.6 °F 74% 30.31 in 10.0 mi Calm Calm - N/A   Overcast
1:33 AM 23.0 °F - 15.8 °F 74% 30.31 in 10.0 mi Calm Calm - N/A   Overcast
1:53 AM 21.2 °F - 15.8 °F 80% 30.31 in 10.0 mi Calm Calm - N/A   Overcast
2:13 AM 21.2 °F - 17.6 °F 86% 30.32 in 10.0 mi Calm Calm - N/A   Overcast
2:33 AM 23.0 °F - 17.6 °F 80% 30.32 in 10.0 mi Calm Calm - N/A   Overcast
2:53 AM 24.8 °F - 19.4 °F 80% 30.31 in 10.0 mi Calm Calm - N/A   Overcast
3:13 AM 24.8 °F - 19.4 °F 80% 30.31 in 10.0 mi Calm Calm - N/A   Overcast
3:34 AM 24.8 °F - 19.4 °F 80% 30.31 in 10.0 mi Calm Calm - N/A   Overcast
3:53 AM 24.8 °F - 19.4 °F 80% 30.31 in 10.0 mi Calm Calm - N/A   Overcast
4:13 AM 24.8 °F - 19.4 °F 80% 30.30 in 10.0 mi Calm Calm - N/A   Overcast
4:33 AM 24.8 °F - 19.4 °F 80% 30.30 in 10.0 mi Calm Calm - N/A   Overcast
4:53 AM 26.6 °F - 19.4 °F 74% 30.30 in 10.0 mi Calm Calm - N/A   Overcast
5:13 AM 26.6 °F - 19.4 °F 74% 30.31 in 10.0 mi Calm Calm - N/A   Overcast
5:33 AM 26.6 °F - 19.4 °F 74% 30.30 in 10.0 mi Calm Calm - N/A   Overcast
5:53 AM 26.6 °F - 19.4 °F 74% 30.30 in 10.0 mi Calm Calm - N/A   Overcast
6:13 AM 24.8 °F - 19.4 °F 80% 30.30 in 10.0 mi Calm Calm - N/A   Overcast
6:33 AM 24.8 °F - 19.4 °F 80% 30.30 in 10.0 mi Calm Calm - N/A   Mostly Cloudy
6:53 AM 24.8 °F - 19.4 °F 80% 30.30 in 10.0 mi Calm Calm - N/A   Overcast
7:13 AM 24.8 °F - 19.4 °F 80% 30.30 in 10.0 mi Calm Calm - N/A   Overcast
7:33 AM 26.6 °F - 19.4 °F 74% 30.31 in 10.0 mi Calm Calm - N/A   Overcast
7:53 AM 26.6 °F - 19.4 °F 74% 30.31 in 10.0 mi Calm Calm - N/A   Overcast
8:13 AM 26.6 °F - 19.4 °F 74% 30.31 in 10.0 mi Calm Calm - N/A   Overcast
8:33 AM 26.6 °F - 21.2 °F 80% 30.31 in 10.0 mi Calm Calm - N/A   Overcast
8:53 AM 28.4 °F - 21.2 °F 74% 30.31 in 10.0 mi Calm Calm - N/A   Mostly Cloudy
9:33 AM 30.2 °F - 24.8 °F 80% 30.31 in 10.0 mi Calm Calm - N/A   Mostly Cloudy
9:53 AM 33.8 °F - 24.8 °F 70% 30.31 in 10.0 mi Calm Calm - N/A   Scattered Clouds
10:13 AM 35.6 °F 30.7 °F 23.0 °F 60% 30.30 in 10.0 mi South 5.8 mph - N/A   Scattered Clouds
10:33 AM 35.6 °F 32.8 °F 23.0 °F 60% 30.30 in 10.0 mi South 3.5 mph - N/A   Mostly Cloudy
10:53 AM 37.4 °F - 21.2 °F 52% 30.30 in 10.0 mi Calm Calm - N/A   Mostly Cloudy
11:13 AM 39.2 °F 35.0 °F 21.2 °F 49% 30.30 in 10.0 mi SSW 5.8 mph - N/A   Mostly Cloudy
11:33 AM 37.4 °F 31.4 °F 21.2 °F 52% 30.30 in 10.0 mi SSW 8.1 mph - N/A   Scattered Clouds
12:33 PM 37.4 °F 30.8 °F 21.2 °F 52% 30.29 in 10.0 mi SSW 9.2 mph 16.1 mph N/A   Mostly Cloudy
12:53 PM 37.4 °F 30.8 °F 21.2 °F 52% 30.29 in 10.0 mi SW 9.2 mph - N/A   Scattered Clouds
1:13 PM 37.4 °F 32.1 °F 21.2 °F 52% 30.29 in 10.0 mi WSW 6.9 mph - N/A   Clear
1:33 PM 37.4 °F 30.3 °F 21.2 °F 52% 30.28 in 10.0 mi SSW 10.4 mph - N/A   Clear
1:53 PM 37.4 °F 31.4 °F 21.2 °F 52% 30.28 in 10.0 mi SSW 8.1 mph 16.1 mph N/A   Clear
2:13 PM 37.4 °F 30.3 °F 23.0 °F 56% 30.28 in 10.0 mi SW 10.4 mph - N/A   Scattered Clouds
2:33 PM 37.4 °F 30.8 °F 23.0 °F 56% 30.28 in 10.0 mi SW 9.2 mph 16.1 mph N/A   Clear
2:53 PM 37.4 °F 32.8 °F 23.0 °F 56% 30.28 in 10.0 mi WSW 5.8 mph - N/A   Clear
3:13 PM 37.4 °F 33.8 °F 23.0 °F 56% 30.28 in 10.0 mi SW 4.6 mph - N/A   Scattered Clouds
3:33 PM 37.4 °F 32.1 °F 23.0 °F 56% 30.28 in 10.0 mi WSW 6.9 mph - N/A   Mostly Cloudy
3:53 PM 37.4 °F 34.9 °F 21.2 °F 52% 30.28 in 10.0 mi West 3.5 mph - N/A   Mostly Cloudy
4:13 PM 37.4 °F 34.9 °F 21.2 °F 52% 30.28 in 10.0 mi West 3.5 mph - N/A   Overcast
4:33 PM 37.4 °F - 21.2 °F 52% 30.28 in 10.0 mi Calm Calm - N/A   Mostly Cloudy
4:53 PM 37.4 °F - 23.0 °F 56% 30.28 in 10.0 mi Calm Calm - N/A   Overcast
5:13 PM 37.4 °F 33.8 °F 23.0 °F 56% 30.28 in 10.0 mi WSW 4.6 mph - N/A   Mostly Cloudy
5:33 PM 37.4 °F 32.8 °F 23.0 °F 56% 30.29 in 10.0 mi WSW 5.8 mph - N/A   Overcast
5:53 PM 35.6 °F 31.7 °F 23.0 °F 60% 30.29 in 10.0 mi WSW 4.6 mph - N/A   Overcast
6:13 PM 35.6 °F - 23.0 °F 60% 30.29 in 10.0 mi Calm Calm - N/A   Overcast
6:33 PM 33.8 °F - 24.8 °F 70% 30.29 in 10.0 mi Calm Calm - N/A   Overcast
6:53 PM 33.8 °F - 24.8 °F 70% 30.29 in 10.0 mi Calm Calm - N/A   Overcast
7:13 PM 30.2 °F - 23.0 °F 75% 30.30 in 10.0 mi Calm Calm - N/A   Overcast
7:33 PM 30.2 °F - 23.0 °F 75% 30.29 in 10.0 mi Calm Calm - N/A   Overcast
7:53 PM 30.2 °F - 23.0 °F 75% 30.30 in 10.0 mi Calm Calm - N/A   Overcast
8:13 PM 30.2 °F - 23.0 °F 75% 30.30 in 10.0 mi Calm Calm - N/A   Scattered Clouds
8:53 PM 28.4 °F - 23.0 °F 80% 30.30 in 10.0 mi Calm Calm - N/A   Scattered Clouds
9:13 PM 28.4 °F - 23.0 °F 80% 30.31 in 10.0 mi Calm Calm - N/A   Mostly Cloudy
9:34 PM 28.4 °F - 24.8 °F 86% 30.31 in 10.0 mi Calm Calm - N/A   Mostly Cloudy
9:53 PM 26.6 °F - 23.0 °F 86% 30.31 in 10.0 mi Calm Calm - N/A   Overcast
10:13 PM 26.6 °F - 21.2 °F 80% 30.31 in 10.0 mi Calm Calm - N/A   Mostly Cloudy
10:33 PM 24.8 °F - 21.2 °F 86% 30.31 in 10.0 mi Calm Calm - N/A   Scattered Clouds
10:53 PM 24.8 °F - 21.2 °F 86% 30.31 in 10.0 mi Calm Calm - N/A   Mostly Cloudy
11:13 PM 24.8 °F - 21.2 °F 86% 30.31 in 10.0 mi Calm Calm - N/A   Mostly Cloudy
11:53 PM 24.8 °F - 23.0 °F 93% 30.31 in 10.0 mi Calm Calm - N/A   Scattered Clouds